SCP
0 0 0 0 0 0 0 0 0 0 0 0 0 0 0 0 0 0 0 0 0 0 0 0 0 0 0 0 0 0 0 0 0 0 0 0 0 0 0 0 0 0 0 0 0 0 0 0 0
0 0 0 0 0 0 0 0 0 0 0 0 0 0 0 0 0 0 0 0 0 0 0 0 0 0 0 0 0 0 0 0 0 0 0 0 0 0 0 0 0 0 0 0 0 0 0 0 0
0 0 0 0 0 0 0 0 0 0 0 0 0 0 0 0 0 0 0 0 0 0 0 0 0 0 0 0 0 0 0 0 0 0 0 0 0 0 0 0 0 0 0 0 0 0 0 0 0
0 0 0 0 0 0 0 0 0 0 0 0 0 0 0 0 0 0 0 0 0 0 0 0 0 0 0 0 0 0 0 0 0 0 0 0 0 0 0 0 0 0 0 0 0 0 0 0 0
0 0 0 0 0 0 0 0 0 0 0 0 0 0 0 0 0 0 0 0 0 0 0 0 0 0 0 0 0 0 0 0 0 0 0 0 0 0 0 0 0 0 0 0 0 0 0 0 0
0 0 0 0 0 0 0 0 0 0 0 0 0 0 0 0 0 0 0 0 0 0 0 0 0 0 0 0 0 0 0 0 0 0 0 0 0 0 0 0 0 0 0 0 0 0 0 0 0
0 0 0 0 0 0 0 0 0 0 0 0 0 0 0 0 0 0 0 0 0 0 0 0 0 0 0 0 0 0 0 0 0 0 0 0 0 0 0 0 0 0 0 0 0 0 0 0 0
0 0 0 0 0 0 0 0 0 0 0 0 0 0 0 0 0 0 0 0 0 0 0 0 0 0 0 0 0 0 0 0 0 0 0 0 0 0 0 0 0 0 0 0 0 0 0 0 0
0 0 0 0 0 0 0 0 0 0 0 0 0 0 0 0 0 0 0 0 0 0 0 0 0 0 0 0 0 0 0 0 0 0 0 0 0 0 0 0 0 0 0 0 0 0 0 0 0
0 0 0 0 0 0 0 0 0 0 0 0 0 0 0 0 0 0 0 0 0 0 0 0 0 0 0 0 0 0 0 0 0 0 0 0 0 0 0 0 0 0 0 0 0 0 0 0 0
0 0 0 0 0 0 0 0 0 0 0 0 0 0 0 0 0 0 0 0 0 0 0 0 0 0 0 0 0 0 0 0 0 0 0 0 0 0 0 0 0 0 0 0 0 0 0 0 0
0 0 0 0 0 0 0 0 0 0 0 0 0 0 0 0 0 0 0 0 0 0 0 0 0 0 0 0 0 0 0 0 0 0 0 0 0 0 0 0 0 0 0 0 0 0 0 0 0
0 0 0 0 0 0 0 0 0 0 0 0 0 0 0 0 0 0 0 0 0 0 0 0 0 0 0 0 0 0 0 0 0 0 0 0 0 0 0 0 0 0 0 0 0 0 0 0 0
0 0 0 0 0 0 0 0 0 0 0 0 0 0 0 0 0 0 0 0 0 0 0 0 0 0 0 0 0 0 0 0 0 0 0 0 0 0 0 0 0 0 0 0 0 0 0 0 0
0 0 0 0 0 0 0 0 0 0 0 0 0 0 0 0 0 0 0 0 0 0 0 0 0 0 0 0 0 0 0 0 0 0 0 0 0 0 0 0 0 0 0 0 0 0 0 0 0
0 0 0 0 0 0 0 0 0 0 0 0 0 0 0 0 0 0 0 0 0 0 0 0 0 0 0 0 0 0 0 0 0 0 0 0 0 0 0 0 0 0 0 0 0 0 0 0 0
0 0 0 0 0 0 0 0 0 0 0 0 0 0 0 0 0 0 0 0 0 0 0 0 0 0 0 0 0 0 0 0 0 0 0 0 0 0 0 0 0 0 0 0 0 0 0 0 0
0 0 0 0 0 0 0 0 0 0 0 0 0 0 0 0 0 0 0 0 0 0 0 0 0 0 0 0 0 0 0 0 0 0 0 0 0 0 0 0 0 0 0 0 0 0 0 0 0
0 0 0 0 0 0 0 0 0 0 0 0 0 0 0 0 0 0 0 0 0 0 0 0 0 0 0 0 0 0 0 0 0 0 0 0 0 0 0 0 0 0 0 0 0 0 0 0 0
0 0 0 0 0 0 0 0 0 0 0 0 0 0 0 0 0 0 0 0 0 0 0 0 0 0 0 0 0 0 0 0 0 0 0 0 0 0 0 0 0 0 0 0 0 0 0 0 0
0 0 0 0 0 0 0 0 0 0 0 0 0 0 0 0 0 0 0 0 0 0 0 0 0 0 0 0 0 0 0 0 0 0 0 0 0 0 0 0 0 0 0 0 0 0 0 0 0
0 0 0 0 0 0 0 0 0 0 0 0 0 0 0 0 0 0 0 0 0 0 0 0 0 0 0 0 0 0 0 0 0 0 0 0 0 0 0 0 0 0 0 0 0 0 0 0 0
0 0 0 0 0 0 0 0 0 0 0 0 0 0 0 0 0 0 0 0 0 0 0 0 0 0 0 0 0 0 0 0 0 0 0 0 0 0 0 0 0 0 0 0 0 0 0 0 0
0 0 0 0 0 0 0 0 0 0 0 0 0 0 0 0 0 0 0 0 0 0 0 0 0 0 0 0 0 0 0 0 0 0 0 0 0 0 0 0 0 0 0 0 0 0 0 0 0
0 0 0 0 0 0 0 0 0 0 0 0 0 0 0 0 0 0 0 0 0 0 0 0 0 0 0 0 0 0 0 0 0 0 0 0 0 0 0 0 0 0 0 0 0 0 0 0 0
0 0 0 0 0 0 0 0 0 0 0 0 0 0 0 0 0 0 0 0 0 0 0 0 0 0 0 0 0 0 0 0 0 0 0 0 0 0 0 0 0 0 0 0 0 0 0 0 0
0 0 0 0 0 0 0 0 0 0 0 0 0 0 0 0 0 0 0 0 0 0 0 0 0 0 0 0 0 0 0 0 0 0 0 0 0 0 0 0 0 0 0 0 0 0 0 0 0
0 0 0 0 0 0 0 0 0 0 0 0 0 0 0 0 0 0 0 0 0 0 0 0 0 0 0 0 0 0 0 0 0 0 0 0 0 0 0 0 0 0 0 0 0 0 0 0 0
0 0 0 0 0 0 0 0 0 0 0 0 0 0 0 0 0 1 0 0 0 0 0 0 0 0 0 0 0 0 0 0 0 0 0 0 0 0 0 0 0 0 0 0 0 0 0 0 0
0 0 0 0 0 0 0 0 0 0 0 0 0 0 0 0 1 1 1 0 0 0 0 0 0 0 0 0 0 0 0 0 0 0 0 0 0 0 0 0 0 0 0 0 0 0 0 0 0
Wind_Speed
12 8 3 1 4 6 3 3 1 3 3 3 5 6 7 4 2 3 1 5 6 5 4 7 10 11 11 11 12 13 13 13 13 13 13 13 13 13 12 12 12 11 12 12 12 12 12 12 13
8 6 1 3 5 3 3 2 2 2 4 5 6 6 6 5 4 6 3 4 7 6 4 6 10 11 11 11 11 12 12 12 12 12 12 12 12 11 11 11 11 11 11 11 11 12 12 12 12
8 3 2 4 4 3 1 1 4 5 4 3 5 5 5 3 4 4 4 7 7 5 4 5 11 10 10 11 11 11 12 11 11 11 11 11 11 10 11 10 10 10 10 10 11 11 12 12 12
4 2 3 5 3 1 3 3 5 5 4 5 5 6 4 3 4 5 7 8 7 5 4 5 10 10 10 10 10 11 11 11 11 10 10 10 10 10 10 9 9 9 9 9 10 10 11 11 11
2 3 5 4 2 2 3 4 3 4 3 4 5 5 4 3 7 10 9 7 7 5 4 4 10 10 10 10 10 10 10 10 10 9 9 9 9 9 9 8 8 8 8 9 9 10 10 10 9
3 4 5 2 2 2 3 3 4 5 5 5 5 5 3 3 7 8 8 6 5 5 3 4 8 9 9 9 9 9 9 9 9 9 8 8 8 8 7 7 7 8 8 8 9 9 8 8 8
3 4 3 2 2 1 3 2 3 5 5 4 5 5 2 2 5 7 6 5 4 4 3 2 3 5 8 9 9 8 8 8 8 8 7 7 7 7 6 6 6 6 7 7 8 8 8 7 7
3 5 3 1 2 2 4 3 3 5 4 5 5 7 5 5 7 7 6 5 4 3 2 2 2 2 3 4 7 7 7 7 7 7 7 7 7 6 6 5 6 6 6 7 7 7 7 6 5
3 5 1 3 5 3 5 4 3 3 6 3 3 5 6 13 11 8 5 3 3 4 2 2 2 2 2 2 4 5 6 5 5 4 6 5 2 2 2 4 5 5 6 6 6 6 6 5 4
4 3 5 4 5 6 6 5 5 5 4 2 5 6 12 14 12 10 8 7 7 6 4 3 3 3 2 2 2 1 1 2 2 2 2 2 2 1 2 2 4 5 5 5 5 5 5 4 2
3 4 3 2 4 7 7 5 4 8 4 6 9 13 14 13 10 9 9 7 7 6 5 4 4 3 3 2 2 1 1 1 1 2 2 2 1 1 1 1 1 1 2 2 2 3 2 2 1
2 1 2 3 4 6 7 6 4 5 6 7 13 16 15 14 12 11 10 9 6 5 6 5 5 4 3 2 2 2 1 1 1 1 2 2 1 1 0 0 0 0 1 1 1 1 1 2 1
2 0 1 2 5 6 6 4 3 3 3 10 13 14 14 13 11 8 7 6 6 7 7 6 6 5 4 3 2 2 2 2 2 2 2 2 2 1 1 1 1 1 1 1 1 1 1 1 1
0 2 3 4 5 3 5 2 2 3 8 12 12 12 12 12 10 7 7 7 8 8 8 6 6 6 5 4 3 2 2 2 2 2 3 3 3 2 2 1 1 1 1 1 1 1 1 1 1
3 5 5 3 3 3 6 1 3 5 10 11 11 11 10 9 9 10 10 9 9 8 7 7 7 6 6 5 5 3 3 2 3 3 3 4 4 4 3 2 2 2 2 2 1 1 1 1 2
5 5 2 2 2 3 6 5 4 8 11 10 10 10 9 8 9 9 9 8 8 7 7 7 7 7 6 5 4 3 3 3 3 3 3 4 5 5 3 3 3 2 2 2 2 2 1 2 2
4 1 2 3 2 4 4 5 4 9 11 10 10 9 9 8 8 8 8 8 8 8 8 7 6 6 6 5 4 3 2 3 2 2 3 4 4 5 4 3 3 2 2 2 3 2 2 2 2
2 2 2 4 4 4 4 5 4 9 10 10 9 8 8 9 10 8 7 7 7 7 7 7 6 5 5 3 2 1 1 1 1 2 3 3 3 4 4 3 3 3 2 2 2 2 2 2 2
4 3 4 5 3 4 5 5 5 9 9 9 9 9 9 10 7 5 6 7 6 6 6 6 6 5 4 3 2 2 2 2 2 2 3 3 4 4 4 3 3 3 3 3 3 2 2 2 1
3 2 2 2 0 3 2 3 3 9 12 11 11 11 10 8 5 6 6 7 8 8 7 7 7 6 5 4 3 2 2 1 2 2 2 3 4 4 4 4 3 4 3 3 3 3 2 1 2
2 4 4 2 1 3 2 4 2 4 6 7 8 8 9 11 10 8 8 8 8 8 9 8 8 6 6 5 2 2 1 1 0 1 1 2 3 4 4 4 4 4 4 3 4 4 4 2 2
4 5 4 3 3 1 1 3 6 4 5 9 11 10 11 10 10 9 9 9 9 10 8 7 7 6 5 5 4 4 3 3 3 2 2 2 2 3 3 3 4 3 3 3 4 4 3 3 3
4 1 3 3 4 2 1 1 8 1 6 12 13 13 13 12 12 11 11 11 9 8 8 7 7 6 5 6 6 5 3 3 1 1 1 1 1 2 3 3 3 3 3 4 3 3 4 4 4
4 7 7 6 5 1 2 3 8 5 9 9 11 13 12 12 11 11 9 8 7 7 7 7 7 7 6 6 6 5 5 4 3 2 2 2 1 1 2 3 3 3 3 3 3 3 4 4 4
5 7 5 5 4 5 2 3 10 8 7 9 10 12 12 10 11 10 10 10 9 9 9 8 8 7 7 7 7 6 6 6 5 4 3 3 2 2 2 2 2 2 3 3 3 3 3 4 4
4 9 9 5 5 5 1 6 9 6 6 6 6 7 7 9 10 11 11 10 10 10 9 9 9 8 7 7 7 6 6 4 4 4 4 3 3 3 2 2 2 3 3 3 2 2 3 3 4
6 3 6 8 3 1 5 7 10 5 6 4 1 4 7 8 9 10 9 10 9 9 9 9 9 8 7 8 7 6 6 5 5 4 3 3 3 2 2 2 2 2 2 2 2 2 3 2 3
4 8 6 7 6 3 4 4 5 8 7 5 1 4 6 6 7 8 8 8 8 7 7 7 8 8 7 7 7 6 6 5 4 3 3 3 3 2 2 2 2 1 1 1 1 1 2 2 2
3 4 6 5 5 7 3 7 6 6 5 5 4 4 5 7 8 8 7 7 7 6 6 7 7 6 5 6 5 5 4 4 4 4 3 3 3 3 3 2 2 1 1 1 1 1 1 2 2
4 6 8 6 4 4 5 8 5 4 4 3 3 2 2 4 5 6 6 6 6 7 6 7 6 6 6 6 5 5 4 4 4 4 4 4 3 3 2 2 2 1 1 1 1 2 1 1 1
Wind_Direction
143 139 141 104 53 49 26 352 50 77 61 60 76 85 94 77 104 135 124 130 127 130 135 136 132 126 121 119 119 118 116 117 117 119 120 121 122 123 124 125 124 122 121 121 121 122 124 123 125
142 149 128 61 72 58 349 348 68 82 129 123 80 74 74 65 66 103 124 139 125 127 124 134 134 130 126 124 122 120 119 119 119 121 122 122 124 125 125 125 124 124 124 123 123 124 126 125 126
154 166 88 69 80 139 171 90 111 104 109 93 78 64 76 97 117 136 154 137 121 124 127 143 138 134 130 128 127 125 124 124 123 123 125 127 127 128 127 128 127 126 127 127 126 125 126 125 125
143 76 56 67 65 206 164 153 132 113 70 58 87 70 66 95 139 140 135 132 126 126 133 150 141 138 134 132 131 129 128 126 125 126 126 127 129 129 128 129 129 129 130 131 131 129 129 128 129
82 81 60 46 14 27 124 144 124 100 80 70 84 83 55 43 104 122 131 132 134 131 136 152 146 142 139 135 135 134 133 130 129 130 129 128 128 129 129 131 132 132 134 136 137 134 133 134 133
68 71 74 58 29 55 101 111 98 88 93 90 89 91 58 95 117 132 133 132 135 135 139 147 151 145 142 140 140 139 137 135 134 133 132 132 131 131 132 133 135 136 137 138 140 138 138 137 134
104 91 112 137 113 107 152 115 115 117 111 118 117 98 93 128 136 133 126 120 120 128 130 128 139 146 148 146 145 146 143 141 138 136 137 137 135 134 134 133 135 138 141 143 145 144 144 144 143
137 99 85 129 149 183 152 120 122 126 122 125 122 135 169 175 138 118 109 110 119 125 135 138 122 116 127 144 152 151 147 146 146 145 145 143 140 140 136 131 135 141 144 146 147 148 149 150 149
104 76 150 198 174 178 149 132 139 111 118 128 128 151 158 140 134 125 123 130 155 169 168 157 148 139 132 145 162 157 155 151 146 147 148 132 96 100 123 140 145 147 150 146 148 151 146 139 136
93 119 218 203 171 154 153 142 149 125 129 116 87 96 125 141 150 158 166 175 185 191 191 184 177 168 158 167 131 106 108 107 106 95 99 99 94 96 123 135 151 150 150 149 151 148 132 112 103
134 175 214 158 149 137 143 143 140 136 180 188 158 147 147 155 165 176 184 186 193 192 191 190 191 183 176 167 142 125 100 103 110 122 122 116 103 83 73 58 56 81 117 101 109 99 99 110 124
134 213 156 153 139 137 146 141 138 174 208 169 154 151 156 168 180 187 190 192 186 184 195 194 189 190 195 187 174 165 161 162 178 182 165 145 143 153 140 124 97 81 82 105 103 106 117 127 152
81 13 59 115 121 127 119 130 148 192 129 129 139 151 167 179 189 194 193 188 185 193 198 197 190 193 194 192 200 186 190 194 200 200 191 177 182 199 202 191 174 174 155 160 153 146 151 174 203
45 66 67 83 99 120 125 119 110 177 134 138 152 166 178 186 187 185 188 191 194 199 199 196 195 196 191 194 201 205 203 200 198 205 208 197 194 195 200 204 196 205 201 202 191 190 193 221 230
66 60 43 63 99 130 112 78 212 165 146 153 169 179 186 193 190 195 197 195 195 196 193 194 198 193 193 199 205 209 209 198 205 211 210 206 201 195 192 199 208 211 195 194 200 213 205 230 237
50 59 40 284 126 135 132 228 220 158 158 170 181 187 192 201 203 205 199 194 189 185 185 195 200 191 197 200 201 205 206 202 210 209 210 211 205 196 188 199 216 207 191 188 194 201 205 230 238
42 67 254 274 191 150 166 234 207 167 169 181 190 194 196 204 214 212 199 192 187 186 183 187 190 186 193 196 198 202 205 207 209 204 209 215 206 195 189 202 215 196 191 196 208 194 194 218 233
222 228 244 240 222 165 201 236 193 178 182 191 196 200 201 208 216 206 196 189 182 182 181 184 186 185 177 172 174 186 202 215 206 209 214 211 202 196 192 202 206 187 190 209 206 202 204 220 229
181 191 242 252 211 173 216 234 203 183 190 198 203 205 210 218 218 197 188 180 172 175 179 184 186 184 165 159 170 177 201 212 215 218 216 208 205 199 193 207 198 186 198 212 203 191 211 225 168
175 213 252 292 135 155 223 263 217 191 201 202 203 208 212 216 207 197 189 182 182 184 187 189 194 189 182 178 168 167 168 191 209 217 220 210 207 201 202 202 202 197 203 214 208 190 189 214 173
211 198 214 208 40 39 74 325 253 217 212 215 213 212 212 210 206 199 194 193 188 192 193 196 197 193 188 174 143 122 96 67 153 227 229 217 210 208 210 205 197 197 197 213 216 199 193 207 206
247 226 191 160 115 304 107 274 279 221 218 222 221 214 213 211 203 198 196 196 198 201 193 193 189 189 185 169 169 171 182 201 213 206 222 232 210 212 209 204 197 198 195 213 224 210 203 195 215
212 124 116 114 119 64 28 173 284 242 234 234 224 217 214 207 199 198 199 200 200 194 189 188 183 187 182 178 182 180 196 206 195 183 220 231 227 219 210 200 197 201 205 222 226 214 210 204 209
127 69 54 50 67 1 235 174 273 233 223 237 224 217 210 202 198 198 194 186 189 185 185 183 183 192 185 182 183 189 200 199 191 203 214 218 214 227 220 203 201 205 210 224 228 221 216 218 219
96 88 36 6 12 253 252 197 250 255 242 232 224 216 206 195 191 190 186 185 189 188 189 186 186 195 190 186 191 196 203 197 199 204 207 205 207 223 229 209 204 211 216 223 228 226 231 224 225
166 139 155 188 214 268 298 232 254 273 284 260 226 204 190 189 191 192 191 190 192 193 189 185 190 196 191 192 200 198 198 198 204 204 200 203 210 221 217 205 215 218 215 223 225 237 240 233 233
138 164 157 134 153 252 283 289 303 320 339 341 139 161 183 189 188 189 188 185 188 191 190 187 188 193 194 196 195 195 196 197 202 202 197 202 212 217 209 205 208 216 211 216 218 245 254 246 242
126 141 104 120 146 216 283 287 277 306 316 319 265 191 195 185 182 182 184 185 186 188 185 181 185 192 195 194 196 199 195 195 192 184 193 200 208 206 192 203 201 200 202 211 199 240 257 252 259
101 97 103 113 148 156 217 266 241 249 269 269 253 215 192 185 186 181 178 176 172 168 168 176 183 181 188 195 195 194 189 183 177 184 197 198 199 192 194 201 196 190 205 201 196 240 260 261 276
150 157 144 148 198 168 168 258 276 262 267 257 254 241 193 180 178 169 165 162 165 170 173 179 181 183 191 189 186 191 183 171 175 185 191 187 191 190 185 181 175 195 207 194 200 237 259 258 272